Вернуться в каталог

QIANFAN-76

АктивенСвязьPO
NORAD 63162·PAYLOAD·🇨🇳 China

Запущен Mar 11, 2025 с Wenchang Space Launch Site

Loading…

Ближайшие Пролёты (ближайшие 24 часа)

TLE

СвежийSource: Space-Track

Эпоха: Sep 14, 2026, 12:44 UTC

1 63162U 25046D   26257.53109757  .00000057  00000-0  69532-4 0  9995
2 63162  88.9653 291.4971 0015181  56.4832 303.7767 13.51021473 84592

Отслеживайте QIANFAN-76 в реальном времени с AllMySat

Download on the App Store